Torna al catalogo

ATLAS 5 CENTAUR DEB

LostHEO
NORAD 44657·DEBRIS·🇺🇸 United States

Lanciato Oct 17, 2018 da Cape Canaveral Space Force Station

Loading…

Prossimi Passaggi (prossime 24 ore)

TLE

ObsoletoSource: Space-Track

Epoca: Sep 25, 2021, 00:27 UTC

1 44657U 18079T   21268.01908291 -.00000103  00000-0  00000-0 0  9995
2 44657  11.9133 196.3720 5048549  23.4967 353.1075  1.90168932    14

Traccia ATLAS 5 CENTAUR DEB in tempo reale con AllMySat

Download on the App Store